Regional Weather Roundup
Issued by NWS

Home | Current Version | Previous Version | Graphics & Text | Print | Product List | Glossary On
Versions: 1 2 3 4 5 6 7 8 9 10 11 12 13 14 15 16 17 18 19 20 21 22 23 24 25 26 27 28 29 30 31 32 33 34 35 36 37 38 39 40 41 42 43 44 45 46 47 48 49 50
000
ASUS43 KOAX 020410
RWRNE

WEATHER ROUNDUP FOR NEBRASKA
NATIONAL WEATHER SERVICE OMAHA NE
1000 PM CST THU DEC 01 2016

NOTES: SATELLITE DATA IS BEING USED TO AUGMENT CLOUD COVER ABOVE
       12000 FEET.
       "FAIR" INDICATES FEW OR NO CLOUDS BELOW 12,000 FEET WITH NO
       SIGNIFICANT WEATHER AND/OR OBSTRUCTIONS TO VISIBILITY.

  * THESE STATIONS DO NOT REPORT WEATHER SUCH AS RAIN...SNOW OR FOG.

NEZ001>004-019>022-054>056-020500-
NEBRASKA PANHANDLE

CITY           SKY/WX    TMP DP  RH WIND       PRES   REMARKS
SCOTTSBLUFF    CLEAR     22  13  68 NW7       30.01R WCI  13
ALLIANCE       MOCLDY    17  12  80 SW6       29.99R WCI   9
CHADRON        CLOUDY    30  20  66 NW5       30.02R WCI  25
KIMBALL        CLOUDY    27  22  82 W9        30.00R WCI  18
SIDNEY         CLOUDY    23  15  71 W6        30.01R WCI  16
$$

NEZ057>060-069>072-079>082-020500-
SOUTHWEST NEBRASKA

CITY           SKY/WX    TMP DP  RH WIND       PRES   REMARKS
NORTH PLATTE   CLEAR     20  13  74 NW3       30.02R
IMPERIAL       CLEAR     23  11  60 W3        30.02R
LEXINGTON      CLEAR     23  17  75 NE3       30.03R
MCCOOK         CLEAR     22  14  71 W6        30.03R WCI  14
OGALLALA       CLEAR     19  13  78 W8        30.02R WCI   9
$$

NEZ005>010-023>029-035>040-094-020500-
NORTH CENTRAL NEBRASKA

CITY           SKY/WX    TMP DP  RH WIND       PRES   REMARKS
VALENTINE      MOCLDY    25  21  85 CALM      30.03R
AINSWORTH      CLOUDY    25  24  95 CALM      30.03R
BROKEN BOW     CLOUDY    30  24  78 CALM      30.03R
O`NEILL        CLOUDY    27  25  94 NW3       30.05R
ORD            CLOUDY    26  20  77 CALM      30.04R
THEDFORD       PTCLDY    26  21  82 CALM      30.03R
$$

NEZ041-046>049-061>064-073>077-083>087-020500-
SOUTH CENTRAL NEBRASKA

CITY           SKY/WX    TMP DP  RH WIND       PRES   REMARKS
GRAND ISLAND   CLOUDY    26  22  84 NE5       30.05R WCI  20
AURORA         CLOUDY    27  24  87 E3        30.05S
HASTINGS       CLEAR     24  18  77 CALM      30.05R
HEBRON         CLEAR     24  20  83 CALM      30.07R
HOLDREGE       CLEAR     24  15  71 S3        30.02S
KEARNEY *      CLEAR     27  18  69 CALM      30.04S
YORK           CLOUDY    27  25  93 CALM      30.06S
$$

NEZ011>018-030>034-042>045-020500-
NORTHEAST NEBRASKA

CITY           SKY/WX    TMP DP  RH WIND       PRES   REMARKS
NORFOLK        CLOUDY    30  25  81 W3        30.05R
ALBION         CLOUDY    29  25  85 CALM      30.06R
BLAIR          CLOUDY    33  29  84 NW5       30.05S WCI  29
FREMONT        PTCLDY    32  28  84 CALM      30.07R
TEKAMAH        CLOUDY    33  28  81 NW5       30.07S WCI  29
WAYNE          CLOUDY    32  29  89 NW3       30.05S
$$

NEZ050>053-065>068-078-088>093-020500-
SOUTHEAST NEBRASKA

CITY           SKY/WX    TMP DP  RH WIND       PRES   REMARKS
LINCOLN        CLEAR     28  23  81 CALM      30.09R
OMAHA EPPLEY   CLOUDY    33  27  78 NW5       30.07S WCI  29
BEATRICE       CLEAR     26  23  86 CALM      30.07S
FALLS CITY     CLEAR     29  24  82 CALM      30.08R
NEBRASKA CITY  PTCLDY    30  24  78 CALM      30.07S
PLATTSMOUTH    CLOUDY    33  25  72 CALM      30.07R
$$

NEZ044-045-051>053-067-020500-
OMAHA AREA

CITY           SKY/WX    TMP DP  RH WIND       PRES   REMARKS
OMAHA EPPLEY   CLOUDY    33  27  78 NW5       30.07S WCI  29
BLAIR          CLOUDY    33  29  84 NW5       30.05S WCI  29
FREMONT        PTCLDY    32  28  84 CALM      30.07R
MILLARD        CLOUDY    36  28  74 CALM      30.08R
OFFUTT AFB     CLOUDY    33  29  87 CALM      30.07R
PLATTSMOUTH    CLOUDY    33  25  72 CALM      30.07R
WAHOO          FAIR      32  27  81 NW3       30.07S
$$




USA.gov is the U.S. government's official web portal to all federal, state and local government web resources and services.